Location: Most
(50.5133°N, 13.6207°E)
Time: 19:57:34
(UTC+02:00)

ISS - Pass Details

Date: 19 May 2019
Orbit: 407 x 410 km, 51.6° (Epoch: 23 May)

Event Time Altitude Azimuth Distance (km) Brightness Sun altitude
Rises 02:04:44 0° 283° (WNW) 2,339 0.0 -18.5°
Reaches altitude 10° 02:06:49 10° 283° (WNW) 1,477 -1.0 -18.4°
Maximum altitude 02:10:08 88° 8° (N) 415 -3.9 -18.2°
Drops below altitude 10° 02:13:27 10° 103° (ESE) 1,475 -0.9 -18.1°
Sets 02:15:32 0° 104° (ESE) 2,335 0.1 -18.0°
